OneWeb SL0157

operational
NORAD ID: 48055 Int'l Des: 2021-025 Owner: ONEWEBN Country: UK Constellation: oneweb
LEOCIRCULARPOLARONEWEB_TYPE

About OneWeb SL0157

Description loading...

Live Position

Loading 3D Globe...

Upcoming Passes

Altitude History

Altitude vs Time

uPlot chart will show altitude changes over time

Two-Line Element Set

1 48055U 21025P 25350.93690372 .00000387 00000-0 10239-2 0 9991
2 48055 87.8982 356.4379 0001340 85.9802 274.1480 13.13470492229646
Epoch: Dec 16, 2025 • Age: 9 hours

Current Status

Altitude 1231.0 km
Velocity 7.24 km/s
Sub-Earth Point -52.61°S, 157.05°E
Launch Date Mar 25, 2021
Age 4.7 years
Type internet

Technical Details

Classification Payload
Mass 148.00 kg
Dry Mass 140.00 kg
Total Mass 148.00 kg
Length 1.30 m
Diameter 1.00 m
Span 5.00 m
Shape Trapezoid+2 pan
Manufacturer ONEWUS
Bus Type ARROW
Phase Status In Orbit
Owner/State ONEWEBN/UK

Large Constellations

Loading constellations...